This is the latest recevied weather packets stored in our database for station/object IZ1HMT-3. If no packets are shown the sender has not sent any weather packets the latest 10 day(s).
| Time | Temp. | Humidity | Pressure | Rain* | Wind** | Luminosity | Snow |
|---|---|---|---|---|---|---|---|
| 1788540629 | 30.56° C | 52% | 1018.5 hPa | - | - | - | - |
| 1788540027 | 31.11° C | 52% | 1018.6 hPa | - | - | - | - |
| 1788539423 | 31.11° C | 52% | 1018.6 hPa | - | - | - | - |
| 1788538819 | 31.11° C | 52% | 1018.7 hPa | - | - | - | - |
| 1788538234 | 31.67° C | 51% | 1018.7 hPa | - | - | - | - |
| 1788537008 | 31.67° C | 50% | 1018.8 hPa | - | - | - | - |
| 1788536404 | 31.11° C | 52% | 1018.9 hPa | - | - | - | - |
| 1788535800 | 31.11° C | 51% | 1019 hPa | - | - | - | - |
| 1788535220 | 31.11° C | 52% | 1018.9 hPa | - | - | - | - |
| 1788533989 | 31.67° C | 50% | 1019.1 hPa | - | - | - | - |
| 1788533386 | 31.67° C | 50% | 1019.1 hPa | - | - | - | - |
| 1788532782 | 32.22° C | 47% | 1019.1 hPa | - | - | - | - |
| 1788532179 | 32.78° C | 47% | 1019.2 hPa | - | - | - | - |
| 1788531575 | 32.78° C | 47% | 1019.2 hPa | - | - | - | - |
| 1788530971 | 33.33° C | 48% | 1019.2 hPa | - | - | - | - |
| 1788530368 | 32.22° C | 50% | 1019.3 hPa | - | - | - | - |
| 1788529764 | 32.22° C | 52% | 1019.4 hPa | - | - | - | - |
| 1788529165 | 32.22° C | 50% | 1019.4 hPa | - | - | - | - |
| 1788528557 | 34.44° C | 45% | 1019.3 hPa | - | - | - | - |
| 1788527953 | 31.67° C | 53% | 1019.6 hPa | - | - | - | - |
| 1788527349 | 31.11° C | 53% | 1019.6 hPa | - | - | - | - |
| 1788526746 | 31.11° C | 52% | 1019.7 hPa | - | - | - | - |
| 1788526142 | 31.67° C | 51% | 1019.8 hPa | - | - | - | - |
| 1788525538 | 31.67° C | 49% | 1019.9 hPa | - | - | - | - |
| 1788524935 | 32.22° C | 50% | 1020 hPa | - | - | - | - |
* Rain since midnight (hover to see other rain measurements)
** Current wind speed in m/s (hover to see current wind gust speed)